When you browse on this site, cookies collect data to enhance your experience and personalize the content and advertising you see.
Visit our Privacy Policy to learn more. By continuing to use the site, you agree to this use of cookies and data.
  • In Hungary
  • List of Countries
  • For 7 days
  • Water Temperature
  • Weather Map
  • News
  • Weather Widgets
  • user-avatar
    Login

    Hourly Weather Druzhnyy

    Today, 19 January, Sunday

    Time Temperature Precipitation Wind Pressure Humidity
    00:00 -21°C° 0 mm 5 mps 755 mmHg 87%
    01:00 -20°C° 0 mm 4 mps 754 mmHg 85%
    02:00 -20°C° 0 mm 4 mps 753 mmHg 83%
    03:00 -20°C° 0 mm 4 mps 752 mmHg 81%
    04:00 -20°C° 0 mm 4 mps 751 mmHg 80%
    05:00 -22°C° 0 mm 4 mps 750 mmHg 80%
    06:00 -22°C° 0 mm 5 mps 749 mmHg 78%
    07:00 -22°C° 0 mm 5 mps 748 mmHg 82%
    08:00 -22°C° 0 mm 4 mps 747 mmHg 85%
    09:00 -22°C° 0 mm 4 mps 745 mmHg 89%
    10:00 -20°C° 0.2 mm 4 mps 745 mmHg 90%
    11:00 -19°C° 0.2 mm 4 mps 744 mmHg 92%
    12:00 -18°C° 0 mm 4 mps 743 mmHg 94%
    13:00 -18°C° 0.2 mm 4 mps 742 mmHg 93%
    14:00 -18°C° 0.2 mm 4 mps 742 mmHg 93%
    15:00 -19°C° 0.2 mm 4 mps 741 mmHg 92%
    16:00 -19°C° 0 mm 4 mps 742 mmHg 92%
    17:00 -19°C° 0 mm 4 mps 742 mmHg 93%
    18:00 -20°C° 0 mm 4 mps 743 mmHg 92%
    19:00 -20°C° 0 mm 4 mps 743 mmHg 92%
    20:00 -20°C° 0 mm 4 mps 744 mmHg 91%
    21:00 -21°C° 0 mm 5 mps 745 mmHg 90%
    22:00 -21°C° 0 mm 5 mps 745 mmHg 91%
    23:00 -22°C° 0 mm 5 mps 746 mmHg 91%

    Tomorrow, 20 January, Monday

    Time Temperature Precipitation Wind Pressure Humidity
    00:00 -22°C° 0 mm 5 mps 747 mmHg 91%
    01:00 -23°C° 0 mm 4 mps 747 mmHg 92%
    02:00 -24°C° 0 mm 4 mps 748 mmHg 94%
    03:00 -25°C° 0 mm 4 mps 749 mmHg 95%
    04:00 -26°C° 0 mm 4 mps 749 mmHg 95%
    05:00 -27°C° 0 mm 4 mps 750 mmHg 94%
    06:00 -29°C° 0 mm 4 mps 751 mmHg 94%
    07:00 -29°C° 0 mm 4 mps 751 mmHg 93%
    08:00 -29°C° 0 mm 4 mps 751 mmHg 92%
    09:00 -29°C° 0 mm 5 mps 751 mmHg 90%
    10:00 -29°C° 0.1 mm 5 mps 751 mmHg 92%
    11:00 -28°C° 0.1 mm 5 mps 751 mmHg 93%
    12:00 -28°C° 0.1 mm 5 mps 751 mmHg 94%
    13:00 -28°C° 0.1 mm 5 mps 751 mmHg 94%
    14:00 -28°C° 0.1 mm 5 mps 751 mmHg 94%
    15:00 -28°C° 0.1 mm 5 mps 751 mmHg 94%
    16:00 -27°C° 0 mm 5 mps 752 mmHg 93%
    17:00 -27°C° 0 mm 5 mps 752 mmHg 93%
    18:00 -27°C° 0 mm 5 mps 752 mmHg 93%
    19:00 -27°C° 0 mm 5 mps 751 mmHg 93%
    20:00 -26°C° 0 mm 5 mps 751 mmHg 94%
    21:00 -26°C° 0 mm 5 mps 751 mmHg 94%
    22:00 -25°C° 0.2 mm 5 mps 750 mmHg 94%
    23:00 -24°C° 0.2 mm 6 mps 749 mmHg 94%

    Day after tomorrow, 21 January, Tuesday

    Time Temperature Precipitation Wind Pressure Humidity
    00:00 -24°C° 0.2 mm 6 mps 749 mmHg 94%
    01:00 -23°C° 0.3 mm 6 mps 749 mmHg 93%
    02:00 -22°C° 0.3 mm 6 mps 748 mmHg 93%
    03:00 -22°C° 0.3 mm 6 mps 748 mmHg 93%
    04:00 -22°C° 0.1 mm 6 mps 748 mmHg 92%
    05:00 -22°C° 0.1 mm 6 mps 748 mmHg 92%
    06:00 -22°C° 0.1 mm 6 mps 748 mmHg 91%
    07:00 -21°C° 0.1 mm 5 mps 748 mmHg 91%
    08:00 -21°C° 0.1 mm 5 mps 748 mmHg 91%
    09:00 -22°C° 0.1 mm 5 mps 748 mmHg 92%
    10:00 -22°C° 0 mm 5 mps 749 mmHg 91%
    11:00 -21°C° 0 mm 5 mps 749 mmHg 91%
    12:00 -21°C° 0 mm 5 mps 750 mmHg 91%
    13:00 -22°C° 0 mm 4 mps 750 mmHg 91%
    14:00 -22°C° 0 mm 4 mps 750 mmHg 92%
    15:00 -21°C° 0 mm 3 mps 751 mmHg 93%
    16:00 -22°C° 0 mm 3 mps 751 mmHg 95%
    17:00 -21°C° 0 mm 2 mps 752 mmHg 96%
    18:00 -23°C° 0 mm 2 mps 753 mmHg 98%
    19:00 -24°C° 0 mm 2 mps 753 mmHg 98%
    20:00 -23°C° 0 mm 1 mps 753 mmHg 98%
    21:00 -24°C° 0 mm 1 mps 754 mmHg 99%
    22:00 -25°C° 0 mm 1 mps 754 mmHg 99%
    23:00 -25°C° 0 mm 0 mps 754 mmHg 99%

    22 January, Wednesday

    Time Temperature Precipitation Wind Pressure Humidity
    00:00 -26°C° 0 mm 0 mps 755 mmHg 99%
    01:00 -27°C° 0 mm 1 mps 755 mmHg 99%
    02:00 -27°C° 0 mm 1 mps 755 mmHg 99%
    03:00 -27°C° 0 mm 1 mps 755 mmHg 99%
    04:00 -27°C° 0 mm 1 mps 755 mmHg 99%
    05:00 -27°C° 0 mm 1 mps 756 mmHg 98%
    06:00 -29°C° 0 mm 2 mps 756 mmHg 98%
    07:00 -29°C° 0 mm 2 mps 756 mmHg 98%
    08:00 -29°C° 0 mm 2 mps 756 mmHg 98%
    09:00 -29°C° 0 mm 2 mps 756 mmHg 98%
    10:00 -27°C° 0 mm 2 mps 756 mmHg 97%
    11:00 -26°C° 0 mm 2 mps 756 mmHg 96%
    12:00 -24°C° 0 mm 2 mps 756 mmHg 96%
    13:00 -24°C° 0 mm 2 mps 755 mmHg 96%
    14:00 -23°C° 0 mm 2 mps 755 mmHg 95%
    15:00 -21°C° 0 mm 2 mps 754 mmHg 95%
    16:00 -23°C° 0 mm 2 mps 754 mmHg 95%
    17:00 -24°C° 0 mm 2 mps 754 mmHg 94%
    18:00 -25°C° 0 mm 3 mps 753 mmHg 94%
    19:00 -25°C° 0 mm 3 mps 753 mmHg 95%
    20:00 -24°C° 0 mm 3 mps 752 mmHg 96%
    21:00 -23°C° 0 mm 3 mps 752 mmHg 96%
    22:00 -21°C° 0 mm 2 mps 751 mmHg 96%
    23:00 -20°C° 0 mm 2 mps 751 mmHg 96%

    23 January, Thursday

    Time Temperature Precipitation Wind Pressure Humidity
    00:00 -19°C° 0 mm 2 mps 751 mmHg 96%
    01:00 -19°C° 0 mm 2 mps 751 mmHg 96%
    02:00 -18°C° 0 mm 2 mps 751 mmHg 96%
    03:00 -17°C° 0 mm 2 mps 750 mmHg 95%
    04:00 -17°C° 0 mm 3 mps 750 mmHg 95%
    05:00 -17°C° 0 mm 3 mps 750 mmHg 95%
    06:00 -16°C° 0 mm 3 mps 750 mmHg 95%
    07:00 -16°C° 0 mm 3 mps 750 mmHg 95%
    08:00 -16°C° 0 mm 3 mps 749 mmHg 94%
    09:00 -16°C° 0 mm 3 mps 749 mmHg 94%
    10:00 -15°C° 0 mm 3 mps 749 mmHg 92%
    11:00 -14°C° 0 mm 4 mps 749 mmHg 91%
    12:00 -12°C° 0 mm 4 mps 749 mmHg 90%
    13:00 -12°C° 0.1 mm 4 mps 748 mmHg 90%
    14:00 -11°C° 0.1 mm 4 mps 748 mmHg 90%
    15:00 -10°C° 0.1 mm 4 mps 748 mmHg 91%
    16:00 -10°C° 0.1 mm 4 mps 747 mmHg 91%
    17:00 -10°C° 0.1 mm 4 mps 747 mmHg 91%
    18:00 -10°C° 0.1 mm 4 mps 747 mmHg 92%
    19:00 -10°C° 0.1 mm 4 mps 746 mmHg 92%
    20:00 -9°C° 0.1 mm 4 mps 746 mmHg 91%
    21:00 -8°C° 0.1 mm 4 mps 745 mmHg 91%
    22:00 -8°C° 0.1 mm 4 mps 745 mmHg 92%
    23:00 -8°C° 0.1 mm 4 mps 744 mmHg 93%

    24 January, Friday

    Time Temperature Precipitation Wind Pressure Humidity
    00:00 -8°C° 0.1 mm 5 mps 744 mmHg 93%
    01:00 -7°C° 0.3 mm 5 mps 743 mmHg 94%
    02:00 -7°C° 0.3 mm 5 mps 743 mmHg 94%
    03:00 -6°C° 0.3 mm 5 mps 743 mmHg 94%
    04:00 -6°C° 0.4 mm 5 mps 743 mmHg 94%
    05:00 -6°C° 0.4 mm 5 mps 742 mmHg 95%
    06:00 -5°C° 0.4 mm 5 mps 742 mmHg 95%
    07:00 -5°C° 0.2 mm 5 mps 742 mmHg 95%
    08:00 -5°C° 0.2 mm 5 mps 742 mmHg 94%
    09:00 -5°C° 0.2 mm 5 mps 742 mmHg 94%
    10:00 -5°C° 0.3 mm 5 mps 742 mmHg 93%
    11:00 -4°C° 0.3 mm 5 mps 742 mmHg 92%
    12:00 -3°C° 0.3 mm 4 mps 743 mmHg 91%
    13:00 -3°C° 0.1 mm 4 mps 743 mmHg 91%
    14:00 -4°C° 0.1 mm 3 mps 743 mmHg 90%
    15:00 -3°C° 0.1 mm 2 mps 743 mmHg 89%
    16:00 -4°C° 0.3 mm 2 mps 743 mmHg 91%
    17:00 -4°C° 0.3 mm 2 mps 744 mmHg 93%
    18:00 -4°C° 0.3 mm 2 mps 744 mmHg 95%
    19:00 -5°C° 0 mm 2 mps 744 mmHg 96%
    20:00 -7°C° 0 mm 2 mps 744 mmHg 96%
    21:00 -8°C° 0 mm 2 mps 744 mmHg 96%
    22:00 -7°C° 0 mm 2 mps 744 mmHg 96%
    23:00 -7°C° 0 mm 2 mps 744 mmHg 97%
    Show more